Location: Recife
(8.0585°S, 34.8848°W)
Time: 10:41:19
(UTC-03:00)

Transit 2A Rocket - Pass Details

Date: 23 April 2026
Orbit: 587 x 895 km, 66.7° (Epoch: 14 May)

Event Time Altitude Azimuth Distance (km) Brightness Sun altitude
Rises 20:40:20 0° 177° (S) 3,436 - -51.0°
Reaches altitude 10° 20:43:18 10° 163° (SSE) 2,529 - -51.8°
Maximum altitude 20:47:53 23° 112° (ESE) 1,799 - -52.9°
Drops below altitude 10° 20:52:29 10° 62° (ENE) 2,558 - -54.0°
Sets 20:55:29 0° 48° (NE) 3,485 - -54.7°
